Погода в Залучье

Россия / Новгородская область     57°40′04″N   31°45′54″E
темп.,
°C
ветер,
м/с
пор.,
м/с
влажн.,
%
обл.,
%
осадки,
мм/ч
давл.,
гПа
погр.,
м
6 мая, чт
чт600:00+4юв3998100 0.0 1002190
03:00+6в3699100 2.0 999147
06:00+8ююв4129794 2.4 996487
09:00+12ююв41187100 3.0 993837
12:00+9зюз6994100 1.8 992711
15:00+7юз4991100 4.4 995832
18:00+7юз51189100 1.1 9971011
21:00+5юз61290100 1.3 9991158
7 мая, пт
пт700:00+5юз6128888 0.1 1001912
03:00+5юз61286100 0.1 10021147
06:00+5юз5128599 0.0 10031160
09:00+8юз6136752 0.1 10041453
12:00+10юз6105791 0.3 10051822
15:00+11юз585397 0.4 10051976
18:00+11ююз2557100 0.1 10051288
21:00+7ююв2684100 0.2 1005131
8 мая, сб
сб800:00+6вюв2497100 1.0 1003115
03:00+7юв3797100 5.2 1001458
06:00+6ююз1397100 1.1 1000116
09:00+7юз2497100 1.2 1000399
12:00+6сз3595100 0.2 1001446
15:00+6сз4793100 0.3 1002837
18:00+5сз41095100 0.4 10031232
21:00+5сз61191100 3.1 1004900
9 мая, вс
вс900:00+3зсз51288100 0.0 1007668
03:00+4зсз5129076 0.0 1009958
06:00+2з412904 0.0 1013529
09:00+7зсз59621 0.0 1015785
12:00+11зсз58392 0.0 10171825
15:00+13з573992 0.0 10192441
18:00+12зюз46475 0.0 10201923
21:00+6ю3469100 0.0 102270
10 мая, пн
пн1000:00+5ююз3127624 0.0 1023299
03:00+5ю3128177 0.0 1024284
06:00+6ю41275100 0.0 1025380
09:00+9ю51469100 0.0 1025518
12:00+16ююз585118 0.0 1026959
15:00+18ююз68479 0.0 10251331
18:00+18ююз59568 0.0 10251204
21:00+12ю3127526 0.0 1026399